Regional Weather Roundup
Issued by NWS Albany, NY

Home | Current Version | Previous Version | Text Only | Print | Product List | Glossary On
Versions: 1 2 3 4 5 6 7 8 9 10 11 12 13 14 15 16 17 18 19 20 21 22 23 24 25 26 27 28
000
ASUS41 KALY 270410
RWRALY

NEW YORK STATE HOURLY WEATHER ROUNDUP
NATIONAL WEATHER SERVICE ALBANY NY
1200 AM EDT WED JUL 27 2016

NOTE: "FAIR" INDICATES FEW OR NO CLOUDS BELOW 12,000 FEET WITH NO
SIGNIFICANT WEATHER AND/OR NO OBSTRUCTIONS TO VISIBILITY.

NYZ032-033-038>043-046>054-057>066-NYZ062>081-082-084-270500-
EAST


CITY           SKY/WX    TMP DP  RH WIND       PRES   REMARKS
ALBANY         PTCLDY    74  60  61 NW7       29.94R
GLENS FALLS    PTCLDY    67  63  87 CALM      29.93R
POUGHKEEPSIE   MOCLDY    70  64  81 CALM      29.93R
NEWBURGH       PTCLDY    72  64  78 W6        29.97R
MONTGOMERY     PTCLDY    68  64  87 CALM      29.95S
WHITE PLAINS   PTCLDY    74  63  68 NW5       29.94R
ISLIP          MOCLDY    76  66  71 NW7       29.91S
NEW YORK CITY  MOCLDY    83  62  49 N8        29.92R
CENTRAL PARK   PTCLDY    80  60  50 NW5       29.96R
$$

NYZ005>009-017-018-044>046-055-056-270500-
CENTRAL


CITY           SKY/WX    TMP DP  RH WIND       PRES   REMARKS
FULTON         CLEAR     65  60  84 CALM      29.96S
SYRACUSE       CLEAR     67  62  84 CALM      29.96R
ROME           CLEAR     62  61  96 SE3       29.98R
ELMIRA         CLEAR     64  59  83 CALM      30.00R
BINGHAMTON     CLEAR     69  60  73 N3        30.02R
MONTICELLO     PTCLDY    64  61  88 N5        30.01S
$$

NYZ026>034-041>043-087-270500-
NORTH


CITY           SKY/WX    TMP DP  RH WIND       PRES   REMARKS
WATERTOWN      CLEAR     68  63  84 S7        29.94R
FORT DRUM      NOT AVBL
MASSENA        CLEAR     68  61  78 SW7       29.91R
SARANAC LAKE   CLEAR     58  56  93 CALM      29.98R
PLATTSBURGH    CLEAR     66  62  87 W3        29.90S
$$

NYZ001>004-010>016-019>021-085-270500-
WEST


CITY           SKY/WX    TMP DP  RH WIND       PRES   REMARKS
NIAGARA FALLS  CLEAR     72  65  78 SW10      29.97S
BUFFALO        PTCLDY    73  64  73 SW9       29.98S
DUNKIRK        CLEAR     68  62  81 S6        30.00S
JAMESTOWN      CLEAR     64  57  77 CALM      30.05S
WELLSVILLE     CLEAR     65  58  78 N5        30.07S
ROCHESTER      PTCLDY    71  63  75 W7        29.98R
PENN YAN       CLEAR     70  60  70 SW7       30.01R
$$

             KEY
       WCI = WIND CHILL INDEX
       VSB = VISIBILITY
       HX  = HEAT INDEX
$$




USA.gov is the U.S. government's official web portal to all federal, state and local government web resources and services.